User: anonymous   Login
Location: Fort Wayne
(41.1310°N, 85.1290°W)
Time: 07:43:16
(UTC-05:00)
Language:

Helios 1B - Orbit

View from above orbital plane
View from above orbital plane
View from above satellite
View from above satellite

Ground track
Ground track

The orbit data is extracted from the following two-line orbital elements,

1 25977U 99064A   14329.49359494  .00002482  00000-0  32925-3 0  4292
2 25977 098.1545 049.6389 0002324 084.4449 045.5905 14.80771780805595
Epoch (UTC): 25 November 2014 11:50:46
Eccentricity: 0.0002324
inclination: 98.1545°
perigee height: 625 km
apogee height: 628 km
right ascension of ascending node: 49.6389°
argument of perigee: 84.4449°
revolutions per day: 14.80771780
mean anomaly at epoch: 45.5905°
orbit number at epoch: 80559

The dashed part of the orbit path shows where the satellite is in the earth's shadow,  

DLR